Temp
82 81 79 73 61 60 56 63 70 69 70 74 78 75 71 72 67 58 71 75 75 76 78 81 82 83 83 83 83 83 83 83 83 83 83 84 83 83 83 84 83 84 84 84 84 84 84 84 84
81 82 76 68 58 52 56 67 65 69 75 76 78 76 72 67 73 69 69 76 77 77 78 79 82 83 83 83 83 83 83 83 83 83 84 83 84 84 84 85 84 84 84 84 84 84 84 84 84
83 84 68 62 57 55 58 69 69 76 78 78 75 79 74 67 71 71 73 77 77 76 77 78 82 83 83 83 83 83 83 83 83 83 83 84 84 84 84 84 84 84 84 84 84 84 84 84 83
81 75 69 61 60 66 67 69 73 74 79 82 79 71 74 78 74 74 77 77 76 76 75 81 83 83 83 83 83 83 83 83 83 83 83 84 83 84 84 84 84 84 84 84 84 84 83 83 83
78 72 62 61 64 69 71 74 75 73 77 77 78 68 67 75 76 76 76 77 74 74 77 80 82 83 83 83 83 83 83 83 83 83 84 84 84 84 84 84 84 84 83 84 84 84 83 83 83
70 70 61 58 65 72 74 75 75 75 77 76 73 69 67 75 74 76 77 76 76 75 77 79 82 83 83 83 83 83 83 83 83 83 84 84 84 84 83 84 84 84 84 84 84 84 84 83 83
69 65 62 63 66 69 74 77 73 74 75 74 77 67 66 72 75 77 76 75 76 77 77 77 79 81 83 83 83 83 83 83 83 83 84 84 84 84 84 84 84 84 84 84 83 83 83 83 83
73 68 65 66 66 67 77 77 80 77 75 83 80 65 63 72 77 77 75 73 74 76 76 75 75 78 77 79 84 84 84 83 83 83 84 84 84 84 84 84 84 84 84 84 84 83 83 83 83
79 64 60 67 68 72 78 76 82 83 79 82 82 76 76 76 77 74 72 72 73 75 74 74 75 74 75 76 80 83 84 84 84 83 84 83 79 78 80 81 81 82 82 83 84 84 83 82 83
72 61 67 76 76 74 78 78 78 75 75 76 74 76 76 76 74 71 70 70 72 73 74 74 74 73 74 80 77 77 79 79 78 78 78 78 77 75 76 77 82 82 83 83 82 82 84 84 77
73 67 75 80 80 81 78 78 81 74 69 75 72 72 74 73 73 72 72 73 73 74 76 75 74 74 75 77 76 75 76 76 76 76 76 76 76 74 75 73 75 74 77 76 78 76 78 75 75
71 78 79 83 82 80 77 80 75 77 77 83 78 76 75 72 72 72 72 73 72 73 75 76 75 74 74 76 76 75 75 74 75 75 75 74 74 72 73 71 71 71 71 73 74 74 74 75 75
72 78 81 83 81 81 81 78 76 77 81 83 80 77 75 73 74 75 76 75 74 73 75 75 75 74 75 73 74 74 74 76 75 75 74 74 72 72 73 72 71 72 72 72 72 73 74 74 75
78 77 78 81 80 80 79 76 79 78 82 80 77 76 76 75 75 75 75 74 73 73 74 77 75 74 74 74 73 74 74 75 74 74 75 74 74 73 72 72 71 71 72 73 72 73 72 73 74
79 73 77 79 80 80 80 71 74 78 81 78 77 75 76 76 77 76 77 76 75 73 74 75 74 74 72 73 73 74 74 74 73 73 74 75 74 74 73 72 71 72 72 72 72 72 73 72 73
72 71 64 77 78 77 77 65 74 78 78 76 77 76 74 73 76 77 78 77 75 74 73 74 78 76 72 72 73 73 73 73 73 73 74 75 75 75 73 72 72 72 72 72 71 72 71 71 71
65 60 65 70 77 76 74 65 73 77 77 75 74 75 73 72 72 74 78 75 74 74 74 74 75 76 73 72 72 72 73 72 74 74 75 75 75 75 74 73 73 72 72 73 73 72 72 71 71
59 60 65 64 74 72 67 66 70 74 76 74 73 73 71 71 72 73 77 75 76 76 76 76 74 74 73 72 72 73 72 72 73 74 75 75 74 74 73 73 73 73 71 72 72 72 72 72 72
65 62 63 69 74 69 63 65 67 71 73 72 72 71 69 69 73 74 75 75 75 75 72 72 72 72 71 70 71 71 73 74 72 72 74 74 75 74 74 74 73 73 71 72 72 72 71 71 72
64 62 63 69 73 69 64 64 67 71 70 71 72 71 71 70 71 74 73 73 73 73 73 71 71 71 72 72 72 73 72 71 72 73 74 74 74 74 73 73 73 73 72 71 71 71 70 71 71
59 58 62 66 69 70 66 61 64 69 71 74 75 75 73 72 71 71 72 71 73 72 72 71 72 73 73 74 73 74 72 69 67 69 72 74 75 75 74 74 74 73 73 71 71 71 71 70 70
58 69 70 68 62 55 64 52 57 62 64 69 71 73 73 72 73 73 72 71 73 73 73 72 72 72 73 75 74 72 70 68 67 70 74 75 75 75 74 74 74 73 73 72 72 73 72 71 69
67 73 66 67 58 55 58 55 56 57 61 64 69 73 74 74 74 74 73 73 74 74 72 71 71 71 72 74 73 71 71 70 70 71 70 70 72 74 75 74 73 72 71 73 72 73 72 71 70
74 67 63 56 53 50 51 54 53 56 61 65 69 72 74 74 75 75 75 74 74 74 72 71 70 71 71 73 73 72 70 69 68 68 69 70 71 71 73 74 73 73 72 71 72 73 71 71 71
65 57 49 49 48 49 46 52 58 63 67 69 71 71 72 73 72 73 73 73 72 72 72 71 70 70 71 72 72 71 69 69 69 69 69 70 70 71 71 73 71 71 71 72 72 73 73 72 71
59 58 51 46 45 48 49 51 61 68 70 70 72 71 73 72 71 72 71 72 72 72 72 73 71 72 72 71 70 69 69 69 68 68 69 70 70 70 72 72 71 70 71 70 71 70 71 73 73
59 56 57 48 44 47 50 56 64 66 67 69 70 71 71 71 72 72 72 73 73 73 73 73 72 71 71 70 69 68 69 69 68 69 69 70 71 71 71 71 71 70 70 70 69 69 70 71 72
63 66 56 51 45 42 48 49 53 61 65 68 68 69 70 71 72 72 72 72 73 73 73 73 73 71 71 70 69 69 69 69 69 69 69 69 70 71 71 71 71 69 69 69 70 71 71 71 72
61 56 52 51 49 45 43 49 60 64 67 67 69 70 70 71 71 72 72 73 73 74 74 73 72 71 71 70 70 70 70 70 69 68 68 68 69 70 71 71 70 69 69 70 71 70 70 71 71
62 58 55 53 48 45 47 53 66 66 68 69 69 70 71 72 72 72 72 70 71 73 72 73 73 72 71 70 70 71 71 70 69 69 69 69 69 70 70 71 71 72 72 71 70 69 69 70 70
MSLP
1008.99 1009.11 1009.38 1010.07 1010.71 1010.76 1011.01 1010.41 1009.37 1009.00 1008.75 1008.73 1008.89 1009.45 1010.15 1010.83 1011.71 1013.00 1012.51 1012.70 1012.81 1013.52 1014.07 1014.44 1014.68 1015.01 1015.30 1015.50 1015.68 1015.88 1016.00 1016.12 1016.20 1016.34 1016.50 1016.66 1016.79 1016.83 1016.88 1017.05 1017.22 1017.40 1017.36 1017.53 1017.76 1017.86 1018.01 1018.07 1018.12
1009.01 1009.12 1009.33 1009.69 1010.55 1011.16 1010.63 1009.84 1009.39 1008.89 1008.63 1008.75 1008.92 1009.34 1010.04 1011.00 1011.60 1012.36 1012.85 1012.95 1012.88 1013.41 1014.14 1014.61 1014.83 1015.09 1015.42 1015.69 1015.85 1016.07 1016.23 1016.36 1016.38 1016.48 1016.67 1016.81 1016.89 1017.07 1017.16 1017.23 1017.50 1017.70 1017.77 1017.85 1017.98 1018.15 1018.29 1018.39 1018.58
1008.82 1008.77 1009.21 1009.90 1010.57 1010.90 1010.35 1009.61 1009.25 1008.71 1008.54 1008.53 1008.86 1009.14 1010.18 1011.31 1012.00 1012.37 1012.42 1012.90 1013.17 1013.72 1014.26 1014.76 1014.98 1015.17 1015.48 1015.82 1016.02 1016.20 1016.41 1016.54 1016.66 1016.75 1016.85 1016.91 1017.01 1017.16 1017.34 1017.52 1017.75 1017.88 1018.06 1018.29 1018.34 1018.44 1018.55 1018.70 1018.87
1008.43 1008.75 1009.56 1009.83 1010.14 1009.90 1009.73 1009.19 1008.91 1008.68 1008.53 1008.55 1009.06 1010.08 1010.82 1011.09 1011.89 1012.17 1012.66 1013.22 1013.44 1014.06 1014.50 1014.85 1015.18 1015.35 1015.58 1015.90 1016.15 1016.37 1016.52 1016.67 1016.82 1016.91 1017.04 1017.14 1017.29 1017.33 1017.40 1017.67 1017.87 1018.06 1018.12 1018.31 1018.64 1018.74 1018.90 1018.97 1019.04
1008.80 1009.16 1009.77 1010.07 1009.78 1009.36 1008.99 1008.83 1008.85 1008.72 1008.75 1008.96 1009.22 1010.76 1011.63 1011.87 1011.92 1012.36 1012.96 1013.46 1013.70 1014.27 1014.61 1014.88 1015.24 1015.52 1015.76 1016.08 1016.30 1016.49 1016.62 1016.77 1016.95 1017.12 1017.25 1017.33 1017.36 1017.45 1017.61 1017.82 1017.95 1018.09 1018.23 1018.37 1018.61 1018.87 1019.05 1019.19 1019.29
1009.54 1009.86 1010.19 1010.11 1009.71 1009.13 1008.67 1008.54 1008.68 1008.66 1008.88 1009.31 1009.92 1011.01 1012.11 1012.23 1012.41 1012.79 1013.26 1013.64 1013.84 1014.38 1014.76 1014.97 1015.24 1015.58 1015.86 1016.10 1016.37 1016.65 1016.78 1016.88 1017.05 1017.22 1017.33 1017.40 1017.53 1017.67 1017.80 1017.96 1018.07 1018.17 1018.33 1018.51 1018.71 1018.89 1019.07 1019.30 1019.46
1009.46 1010.01 1010.21 1009.76 1009.26 1008.78 1008.45 1008.41 1008.53 1008.44 1008.70 1009.20 1009.58 1011.10 1012.50 1012.80 1012.89 1013.23 1013.73 1014.02 1014.25 1014.48 1014.81 1015.08 1015.29 1015.55 1015.86 1016.09 1016.29 1016.58 1016.83 1016.99 1017.11 1017.21 1017.34 1017.52 1017.68 1017.78 1017.91 1018.07 1018.24 1018.33 1018.45 1018.55 1018.67 1018.88 1019.03 1019.19 1019.47
1009.27 1009.54 1009.70 1009.33 1008.87 1008.31 1007.95 1008.16 1007.98 1008.05 1008.55 1008.77 1009.31 1010.75 1012.08 1012.68 1013.14 1013.74 1014.16 1014.50 1014.75 1014.95 1014.97 1015.16 1015.35 1015.55 1015.86 1016.06 1016.15 1016.33 1016.63 1016.92 1017.05 1017.19 1017.31 1017.43 1017.66 1017.81 1017.96 1018.12 1018.32 1018.40 1018.46 1018.57 1018.69 1018.84 1019.07 1019.21 1019.44
1008.88 1009.50 1009.30 1008.60 1008.23 1007.51 1007.51 1007.80 1007.88 1007.80 1008.37 1008.71 1009.43 1010.06 1010.74 1012.18 1013.14 1013.87 1014.55 1014.97 1015.09 1015.16 1015.21 1015.24 1015.43 1015.62 1015.88 1016.09 1016.14 1016.23 1016.47 1016.70 1016.87 1017.03 1017.24 1017.45 1017.63 1017.76 1018.02 1018.02 1018.32 1018.54 1018.53 1018.56 1018.61 1018.75 1018.99 1019.32 1019.39
1008.66 1008.95 1008.05 1006.95 1006.71 1006.54 1006.74 1007.17 1007.73 1008.23 1008.48 1009.13 1009.94 1010.58 1011.17 1011.99 1012.97 1013.64 1014.15 1014.52 1014.78 1014.90 1015.06 1015.26 1015.34 1015.62 1015.81 1015.90 1016.11 1016.29 1016.38 1016.56 1016.79 1017.05 1017.25 1017.38 1017.68 1017.80 1017.99 1018.11 1018.20 1018.41 1018.51 1018.50 1018.53 1018.70 1018.79 1019.03 1019.55
1008.02 1007.86 1007.00 1005.85 1005.68 1005.90 1006.50 1007.30 1007.81 1008.29 1008.84 1008.84 1009.60 1010.82 1011.57 1012.28 1012.99 1013.38 1013.79 1014.04 1014.30 1014.62 1014.89 1015.18 1015.52 1015.71 1015.81 1015.68 1015.90 1016.23 1016.32 1016.50 1016.70 1016.99 1017.16 1017.42 1017.47 1017.84 1017.84 1018.17 1018.33 1018.48 1018.47 1018.46 1018.49 1018.63 1018.68 1019.05 1019.37
1007.64 1006.68 1006.27 1005.31 1005.51 1006.00 1006.40 1007.01 1007.92 1008.15 1007.96 1007.96 1009.32 1010.17 1011.07 1011.92 1012.53 1013.01 1013.45 1013.63 1013.99 1014.18 1014.43 1014.93 1015.15 1015.44 1015.78 1015.83 1015.72 1015.94 1016.21 1016.45 1016.55 1016.82 1016.99 1017.35 1017.43 1017.68 1017.91 1018.12 1018.21 1018.31 1018.48 1018.46 1018.51 1018.60 1018.74 1018.82 1019.04
1007.07 1006.16 1005.56 1005.52 1005.26 1005.55 1006.02 1006.46 1007.33 1007.98 1007.73 1008.11 1009.35 1010.42 1011.19 1012.03 1012.39 1012.73 1012.93 1013.35 1013.73 1013.86 1014.07 1014.52 1015.04 1015.35 1015.56 1015.89 1015.98 1016.06 1016.18 1016.26 1016.30 1016.53 1016.79 1017.01 1017.28 1017.43 1017.58 1017.77 1017.97 1018.05 1018.23 1018.38 1018.45 1018.52 1018.59 1018.70 1018.84
1006.88 1006.21 1005.61 1005.04 1005.45 1005.47 1005.94 1006.74 1007.05 1007.95 1008.02 1008.55 1009.54 1010.41 1011.22 1011.35 1012.07 1012.59 1012.77 1012.89 1013.18 1014.09 1014.58 1015.00 1015.35 1015.33 1015.51 1015.85 1015.72 1015.77 1016.12 1016.08 1016.22 1016.24 1016.39 1016.68 1016.82 1017.01 1017.27 1017.48 1017.72 1017.76 1017.84 1018.03 1018.16 1018.26 1018.48 1018.60 1018.67
1006.91 1006.60 1005.79 1005.12 1005.22 1005.42 1005.85 1006.83 1007.11 1007.56 1008.13 1008.88 1009.69 1010.45 1010.90 1011.25 1011.72 1011.76 1011.71 1012.15 1013.07 1013.49 1014.06 1014.53 1014.82 1014.90 1015.54 1015.70 1015.77 1015.54 1015.67 1015.97 1016.03 1015.96 1016.07 1016.17 1016.33 1016.58 1016.86 1017.13 1017.39 1017.41 1017.57 1017.73 1018.00 1018.10 1018.27 1018.44 1018.43
1007.43 1007.35 1007.06 1006.05 1005.80 1005.88 1005.88 1006.71 1007.26 1007.80 1008.16 1009.06 1009.75 1010.53 1011.07 1011.36 1011.04 1011.22 1011.18 1012.13 1012.63 1013.02 1013.99 1012.80 1013.39 1013.90 1014.55 1015.04 1015.35 1015.44 1015.41 1015.71 1015.62 1015.55 1015.69 1015.76 1015.86 1016.06 1016.43 1016.70 1016.79 1016.88 1017.34 1017.43 1017.65 1017.88 1018.14 1018.26 1018.34
1008.72 1008.53 1007.84 1006.89 1006.47 1006.69 1006.39 1007.51 1007.53 1008.23 1008.64 1009.23 1009.86 1010.33 1010.82 1011.24 1011.38 1010.98 1011.39 1011.89 1012.25 1012.22 1012.84 1012.76 1012.66 1013.00 1013.74 1014.42 1015.08 1015.38 1015.28 1015.42 1015.30 1015.24 1015.27 1015.21 1015.31 1015.52 1015.88 1016.09 1016.04 1016.48 1016.82 1016.96 1017.18 1017.44 1017.75 1017.89 1018.01
1009.57 1009.16 1008.43 1008.01 1007.02 1007.00 1007.38 1007.94 1008.48 1008.66 1009.15 1009.64 1010.25 1010.51 1010.71 1010.89 1010.68 1011.21 1011.30 1011.67 1012.07 1011.92 1012.06 1012.49 1012.68 1013.02 1013.55 1014.26 1015.26 1015.52 1015.51 1015.48 1015.33 1014.89 1014.77 1014.74 1014.83 1014.96 1015.36 1015.53 1015.63 1015.93 1016.30 1016.53 1016.73 1017.03 1017.37 1017.56 1017.62
1009.24 1009.22 1008.92 1007.78 1007.58 1007.74 1008.57 1008.77 1009.15 1009.00 1009.39 1009.83 1010.28 1010.63 1010.81 1010.87 1010.86 1010.98 1011.44 1011.62 1011.85 1012.30 1012.64 1012.91 1012.96 1013.21 1013.77 1014.69 1015.10 1015.38 1015.41 1015.50 1015.43 1014.85 1014.66 1014.63 1014.45 1014.38 1014.62 1014.94 1015.15 1015.35 1015.82 1015.99 1016.37 1016.70 1017.07 1017.26 1017.48
1008.86 1008.96 1008.71 1008.09 1007.99 1008.39 1009.25 1009.46 1009.51 1009.43 1009.57 1009.70 1010.10 1010.40 1010.74 1010.82 1010.86 1010.94 1011.09 1011.50 1011.61 1011.82 1012.39 1012.97 1013.07 1013.46 1013.87 1014.36 1014.62 1014.95 1015.54 1015.99 1015.88 1015.21 1014.65 1014.28 1014.27 1014.05 1014.05 1014.39 1014.51 1014.72 1015.27 1015.61 1016.05 1016.42 1016.77 1016.88 1017.06
1008.50 1008.72 1008.57 1008.48 1008.66 1009.01 1009.57 1010.17 1010.02 1009.68 1009.68 1009.59 1009.82 1009.99 1010.23 1010.36 1010.62 1010.88 1010.96 1011.12 1011.66 1011.92 1012.21 1012.48 1012.72 1013.18 1013.70 1014.17 1014.80 1014.87 1015.49 1015.88 1014.97 1014.44 1014.56 1013.91 1013.51 1013.31 1013.32 1013.39 1013.61 1013.90 1014.47 1015.02 1015.36 1015.85 1016.08 1016.25 1016.62
1007.99 1007.97 1008.17 1008.50 1009.36 1009.83 1010.03 1011.22 1010.64 1010.13 1009.84 1009.54 1009.71 1009.70 1009.70 1009.80 1010.02 1010.22 1010.78 1011.01 1011.25 1011.85 1012.15 1012.38 1012.56 1013.05 1013.64 1014.38 1014.76 1015.01 1015.56 1015.30 1014.90 1014.67 1014.36 1013.84 1013.20 1012.97 1012.77 1012.64 1012.67 1013.27 1013.75 1014.27 1014.69 1015.01 1015.34 1015.77 1016.06
1007.46 1007.60 1008.38 1008.83 1010.02 1010.38 1010.87 1011.38 1010.43 1010.56 1010.21 1009.70 1009.54 1009.45 1009.36 1009.43 1009.54 1009.73 1010.06 1010.34 1011.08 1011.51 1011.83 1012.29 1012.77 1013.18 1013.80 1014.25 1014.31 1014.32 1014.55 1014.15 1014.62 1014.79 1014.56 1013.60 1013.10 1012.56 1012.15 1012.01 1012.20 1012.56 1013.07 1013.61 1013.95 1014.47 1014.81 1015.17 1015.39
1007.12 1008.00 1009.21 1010.45 1011.16 1012.03 1011.80 1011.94 1010.92 1010.34 1009.47 1009.33 1009.34 1009.32 1009.11 1009.27 1009.48 1009.43 1009.61 1010.03 1010.80 1011.46 1011.88 1012.35 1012.71 1013.26 1013.68 1014.07 1013.83 1014.09 1014.67 1015.05 1014.95 1014.75 1014.36 1013.58 1012.89 1012.30 1011.95 1011.59 1011.87 1012.16 1012.59 1012.96 1013.37 1013.79 1014.21 1014.44 1014.81
1007.34 1008.95 1010.70 1012.17 1012.73 1012.85 1012.37 1012.35 1010.19 1009.01 1008.76 1008.45 1008.71 1008.93 1009.12 1009.61 1009.76 1009.69 1009.99 1010.10 1010.36 1011.28 1011.91 1012.30 1012.61 1013.20 1013.70 1013.85 1013.71 1013.87 1014.13 1014.55 1014.74 1014.67 1014.18 1013.48 1012.62 1012.06 1011.54 1011.44 1011.53 1011.88 1012.34 1012.74 1013.15 1013.46 1013.68 1013.81 1014.04
1007.50 1008.85 1010.44 1012.20 1013.60 1013.35 1012.89 1011.94 1009.21 1008.46 1008.30 1008.61 1008.75 1009.03 1009.56 1009.83 1010.12 1010.30 1010.81 1010.47 1010.07 1010.77 1011.33 1011.79 1012.26 1012.56 1012.71 1013.09 1013.62 1013.81 1013.91 1014.04 1014.08 1013.99 1013.63 1013.11 1012.63 1012.12 1011.70 1011.32 1011.46 1011.86 1012.38 1012.47 1012.79 1012.93 1013.14 1013.30 1013.31
1007.64 1009.05 1009.93 1011.86 1013.81 1013.90 1012.97 1011.16 1009.38 1008.62 1008.45 1008.67 1008.76 1009.11 1009.71 1010.20 1010.42 1010.76 1010.76 1010.16 1010.45 1010.94 1011.42 1011.75 1012.12 1012.45 1012.74 1013.10 1013.62 1013.93 1013.95 1014.00 1014.13 1013.93 1013.55 1012.98 1012.45 1012.12 1012.02 1011.77 1011.94 1012.32 1012.49 1012.51 1012.50 1012.33 1012.56 1012.69 1012.57
1006.83 1008.08 1009.98 1011.79 1013.56 1014.26 1013.20 1012.04 1010.27 1008.70 1008.20 1008.41 1008.98 1009.27 1010.02 1010.43 1010.31 1010.39 1010.65 1010.87 1010.93 1011.05 1011.38 1011.82 1012.10 1012.57 1012.84 1013.12 1013.43 1013.71 1013.91 1014.11 1014.00 1013.72 1013.45 1013.03 1012.50 1012.21 1012.20 1012.25 1012.36 1012.27 1012.14 1012.21 1012.25 1012.21 1012.18 1012.04 1012.11
1007.44 1008.32 1010.26 1011.95 1013.06 1013.71 1013.43 1011.30 1008.41 1008.07 1007.83 1008.09 1008.84 1009.47 1009.92 1009.97 1010.10 1010.81 1011.53 1011.36 1011.47 1011.60 1011.77 1012.14 1012.46 1012.65 1012.96 1013.45 1013.84 1013.99 1014.04 1013.86 1013.77 1013.78 1013.59 1013.28 1012.74 1012.25 1012.15 1012.14 1012.31 1012.40 1012.24 1011.94 1011.91 1011.84 1011.70 1011.73 1011.69
1007.06 1007.97 1009.18 1011.40 1013.17 1013.20 1012.16 1009.44 1007.72 1007.47 1007.79 1008.17 1008.67 1009.09 1009.57 1010.04 1011.28 1012.55 1013.30 1014.01 1013.41 1011.71 1012.02 1012.34 1012.59 1012.92 1013.02 1013.34 1013.71 1013.97 1014.02 1013.97 1013.89 1013.75 1013.49 1013.28 1012.96 1012.36 1012.07 1011.99 1011.99 1011.97 1011.95 1011.83 1011.63 1011.65 1011.79 1011.56 1011.63
Wind_Speed
8 6 3 2 5 6 2 2 1 3 2 2 3 4 5 3 4 4 4 6 16 15 11 12 15 15 13 14 16 16 17 17 16 15 15 14 13 13 14 14 11 13 13 14 14 14 13 14 14
3 6 1 1 6 5 4 2 2 2 2 4 6 3 3 3 4 8 6 11 17 15 11 10 15 15 13 14 15 15 16 16 15 15 14 14 13 13 12 12 11 10 11 13 14 13 12 12 12
4 1 3 4 3 2 2 2 3 1 3 2 3 5 3 2 6 11 7 15 15 13 10 10 16 15 14 14 14 15 15 15 14 14 14 14 13 13 12 11 11 12 11 11 12 12 12 13 12
3 3 4 5 2 2 4 2 3 1 2 3 4 5 5 2 8 6 15 14 14 11 8 14 17 17 16 15 14 15 15 14 13 12 12 13 12 11 12 12 10 10 10 11 12 11 12 12 12
3 3 4 4 5 3 1 1 3 1 2 3 3 3 4 2 10 16 15 13 13 10 10 13 17 16 15 15 14 13 14 13 12 12 11 11 12 12 10 10 10 10 7 9 10 9 11 10 10
4 2 4 3 3 4 2 1 1 1 4 3 6 5 3 9 12 13 14 12 11 12 10 10 17 16 15 14 14 13 12 12 11 11 11 11 11 10 9 8 8 8 9 9 9 9 9 8 7
3 4 2 3 3 2 2 4 2 3 4 2 7 5 2 3 9 11 10 8 10 10 10 9 9 13 16 14 13 14 13 12 11 11 11 10 10 10 9 8 7 7 7 8 8 7 7 9 7
3 3 0 4 2 4 5 6 4 4 1 6 4 5 5 6 11 9 8 6 5 7 8 8 6 8 6 7 15 15 14 13 12 12 12 11 10 10 9 6 5 7 7 8 8 8 7 8 8
3 3 2 4 6 5 8 6 4 1 5 2 4 6 9 19 14 11 8 5 5 6 7 6 7 6 6 6 8 14 15 14 14 13 12 9 3 4 6 6 7 6 8 8 9 10 9 9 9
3 2 6 7 6 7 9 6 9 3 3 2 8 13 19 20 16 14 13 12 11 12 9 7 7 6 6 7 6 5 5 5 5 4 4 3 3 4 5 6 7 6 7 10 9 10 10 10 2
3 4 4 6 5 8 10 5 4 9 3 6 9 16 18 17 13 13 12 11 12 10 8 9 7 5 7 7 4 2 3 2 3 5 4 3 3 3 2 2 1 1 7 3 4 2 4 5 4
3 9 5 5 7 4 8 8 6 10 6 7 15 21 17 18 15 14 13 13 12 12 11 9 8 8 8 4 5 5 4 3 3 4 5 4 3 3 3 2 4 3 2 4 4 2 3 3 3
3 5 6 6 7 5 6 7 6 6 4 13 16 17 16 13 13 11 10 9 8 12 12 10 9 8 7 5 3 3 5 5 5 5 5 5 4 3 3 4 3 3 2 3 3 3 3 3 4
4 7 10 5 5 5 7 3 6 5 12 13 15 15 13 16 14 9 9 12 11 3 2 3 5 5 5 7 6 5 4 5 4 5 6 7 5 4 4 4 3 4 4 3 4 4 3 4 4
5 6 8 3 6 6 7 3 5 9 14 16 13 12 13 13 11 15 15 15 9 6 7 7 7 7 6 7 6 5 4 5 5 6 6 8 8 7 6 4 4 5 4 5 4 4 3 3 4
5 5 5 5 5 4 4 7 4 11 16 14 13 12 10 7 13 12 13 8 10 12 13 14 15 12 10 9 7 4 4 4 6 6 5 9 9 8 6 5 6 5 4 5 5 4 3 4 4
8 2 4 10 6 4 4 3 1 5 11 12 10 9 8 6 7 8 5 9 12 12 14 17 9 11 11 8 6 6 5 5 6 5 6 8 9 9 8 6 6 4 4 4 3 3 3 3 4
4 4 5 4 8 7 2 1 6 2 7 9 7 7 6 8 9 4 5 8 10 12 10 9 6 8 6 4 4 3 3 6 6 7 7 8 6 8 7 6 6 5 4 4 3 4 4 3 3
2 2 5 5 3 4 3 4 5 1 6 7 7 7 7 8 2 6 3 6 6 6 5 6 6 5 4 2 3 3 6 6 5 6 6 6 7 8 8 6 6 5 6 6 6 3 4 3 4
3 1 7 4 4 5 1 5 4 3 2 4 7 6 8 4 6 9 6 5 6 5 5 6 7 6 5 3 2 2 2 4 6 5 6 7 8 9 7 9 8 8 5 6 6 6 3 3 4
2 3 4 6 2 4 4 4 4 2 1 5 5 6 7 10 11 10 9 9 5 7 6 5 3 5 3 3 1 1 5 6 5 8 8 7 9 11 11 11 9 8 8 7 7 7 9 5 4
6 8 5 2 4 4 2 4 5 4 6 4 5 5 9 9 7 8 7 8 9 5 5 5 3 3 2 1 2 3 3 8 9 11 7 7 5 9 10 11 9 8 7 7 7 7 7 5 5
9 5 3 3 4 4 3 4 8 3 6 5 5 7 7 8 8 8 8 7 6 6 6 6 6 3 1 2 5 4 8 8 3 5 8 7 6 8 9 10 9 9 7 7 7 6 7 6 3
4 4 8 7 2 3 2 4 8 6 8 4 4 6 7 5 5 4 4 4 6 7 7 7 7 4 4 5 3 5 5 5 3 3 4 5 6 6 7 8 8 8 7 6 5 5 7 7 6
6 7 2 3 6 6 1 2 12 4 6 7 7 4 7 3 5 4 5 3 4 8 9 8 8 6 6 6 5 4 5 4 1 3 4 7 6 5 7 6 7 6 5 4 4 3 4 6 6
4 8 8 6 4 5 1 6 7 3 5 3 4 1 4 5 2 6 1 1 6 7 8 8 7 4 5 6 6 4 4 2 1 3 4 4 4 4 6 2 4 5 6 5 4 2 3 5 6
3 3 4 10 4 3 4 8 8 7 9 4 6 8 8 6 6 7 6 4 7 6 6 7 7 6 5 6 5 4 4 3 2 4 4 3 4 4 4 2 5 4 3 2 1 1 3 5 6
4 7 4 4 4 3 6 6 8 4 8 7 6 8 7 6 6 7 6 5 4 6 7 7 7 7 5 5 4 3 3 0 2 4 5 6 6 5 5 3 2 3 4 3 3 1 3 4 5
1 3 8 7 4 7 2 8 8 7 8 10 7 7 8 8 8 5 1 3 6 5 6 6 5 7 6 5 2 2 1 2 4 4 5 6 6 7 4 3 2 4 5 5 1 3 5 5 6
3 5 6 7 5 0 3 9 1 5 5 6 8 10 9 6 8 10 12 15 12 5 5 5 4 5 6 5 4 1 2 2 4 4 5 5 6 6 6 4 5 3 5 5 3 2 4 5 8
Wind_Direction
152 166 152 144 52 57 40 323 302 334 331 58 138 147 165 96 170 208 141 151 138 141 154 151 150 142 139 135 132 133 133 132 128 123 121 123 118 110 119 123 119 125 126 126 122 117 117 124 122
185 191 191 45 74 44 296 238 265 267 91 99 100 98 67 94 75 124 114 152 141 139 148 152 153 146 142 140 138 139 138 138 133 127 125 122 118 117 123 126 128 120 120 117 119 121 123 123 129
220 1 74 78 94 101 269 339 333 51 137 54 89 57 51 106 94 148 138 146 138 141 143 159 155 150 145 147 143 144 145 145 140 134 131 132 131 130 129 127 135 139 136 129 129 128 132 137 137
350 13 40 82 114 183 191 282 227 285 276 145 111 62 70 125 147 144 139 143 135 140 140 163 160 156 155 152 153 150 153 153 148 142 138 141 138 136 138 137 139 143 145 143 133 138 140 142 142
357 53 31 21 347 329 298 230 151 170 21 40 63 50 88 54 114 133 142 145 142 137 152 162 167 164 161 160 159 158 159 160 160 156 153 151 145 143 148 146 149 149 148 135 136 142 143 153 153
46 52 31 345 311 325 315 282 360 356 78 141 85 103 158 123 130 144 147 148 147 146 158 168 172 171 170 170 168 166 168 166 165 162 166 163 156 156 156 153 158 162 160 156 156 158 158 162 165
132 106 182 288 302 309 237 132 285 139 129 131 136 94 32 125 128 137 138 135 150 154 160 171 178 182 183 185 182 176 179 178 176 179 179 175 175 173 168 169 176 183 183 176 175 175 182 170 175
125 86 124 228 199 269 154 153 181 155 153 111 135 153 177 155 130 119 113 117 140 164 173 174 177 188 187 192 195 190 186 188 191 193 195 193 188 190 192 186 217 209 212 205 193 193 199 192 182
137 72 245 232 156 233 151 172 138 1 123 114 140 149 142 131 129 123 122 122 156 179 185 181 187 184 178 187 206 199 197 198 203 203 203 208 203 205 200 189 203 239 250 234 227 212 207 212 199
114 116 223 210 202 197 174 164 140 115 167 28 70 92 125 134 145 151 167 174 186 194 195 187 189 185 173 191 203 192 209 191 198 201 212 190 184 212 197 202 205 226 265 261 239 233 228 218 201
192 216 249 251 170 178 165 161 124 131 274 211 163 142 142 144 159 168 180 187 192 194 198 191 184 183 190 198 190 194 202 184 190 196 202 195 209 211 196 181 251 270 263 273 269 289 233 192 202
267 242 219 277 134 143 158 137 124 168 225 169 154 153 150 161 173 180 184 186 187 194 201 191 185 186 199 209 200 198 202 187 200 196 201 190 222 199 196 192 208 218 251 262 252 241 246 250 228
178 308 335 291 132 168 142 170 152 199 130 123 134 154 166 172 181 190 190 200 189 202 197 192 186 196 198 207 226 215 213 210 212 201 206 200 210 210 186 206 209 228 201 224 231 226 234 241 245
270 295 298 263 170 145 158 128 133 141 135 138 145 163 172 181 185 191 196 201 192 153 175 195 216 213 198 212 206 215 218 222 203 213 210 206 212 216 200 204 208 226 206 214 219 206 214 241 233
281 327 335 247 169 187 136 94 214 143 146 157 156 159 174 191 191 199 204 199 184 174 133 160 199 198 218 217 230 221 217 218 215 220 210 210 207 214 209 208 201 226 211 212 224 215 209 237 241
19 43 348 344 4 342 109 259 275 149 150 170 170 155 168 193 206 205 205 180 161 156 161 176 202 194 195 210 218 226 208 222 233 223 213 212 213 212 203 209 218 205 197 198 206 194 204 218 219
15 323 2 320 37 323 95 226 346 142 157 172 178 181 165 191 230 232 188 163 169 169 174 209 185 190 197 204 222 226 214 223 239 236 226 220 209 210 211 215 227 178 203 205 195 193 193 216 222
306 345 314 284 317 47 69 140 21 140 166 177 179 191 186 215 228 248 181 165 175 184 200 207 202 199 181 187 204 228 225 252 249 238 231 226 214 205 204 218 215 193 201 195 184 200 195 215 219
196 193 281 271 243 79 354 54 15 253 149 169 197 197 210 229 260 249 186 194 204 193 144 195 190 189 138 134 180 205 235 245 248 245 260 228 227 217 205 219 214 194 207 216 196 182 198 231 210
206 330 288 295 17 90 324 56 63 28 156 187 180 219 216 222 217 242 243 220 215 238 174 186 211 183 181 178 181 110 48 47 326 292 253 228 241 230 210 212 214 197 199 195 192 188 186 219 179
235 203 243 241 69 63 131 10 340 313 285 190 180 207 238 218 220 215 233 222 207 214 197 194 188 78 86 163 168 360 68 7 320 310 274 249 230 236 225 215 210 194 185 204 199 199 198 213 193
308 186 229 205 101 188 34 258 263 247 293 214 209 216 240 244 217 230 199 210 199 196 151 119 150 136 159 88 184 128 176 221 225 262 290 296 260 243 236 230 208 194 191 202 206 194 204 189 207
247 49 354 93 107 107 7 66 266 28 265 247 201 236 234 233 218 228 228 205 165 155 169 140 146 156 183 166 193 170 197 252 254 277 290 314 298 279 250 227 216 188 188 210 193 187 199 204 191
216 101 36 45 76 35 334 136 283 195 201 198 188 213 234 209 241 247 251 212 160 143 141 137 142 190 204 210 195 159 169 183 236 277 300 296 296 294 278 238 215 203 189 186 197 198 209 204 214
86 63 345 345 19 222 123 60 240 225 217 182 181 197 176 188 175 65 335 342 136 138 143 154 160 187 199 180 136 124 114 126 144 280 286 316 328 325 291 232 197 174 178 151 145 189 218 204 207
160 152 153 201 188 253 110 241 260 234 160 180 262 222 156 173 174 98 318 118 102 140 148 148 157 135 114 121 117 121 110 78 357 317 311 319 323 333 333 304 127 136 155 151 154 160 217 218 222
181 177 168 103 24 56 278 292 301 236 259 239 219 177 181 165 149 132 203 166 121 129 136 138 128 124 125 122 123 106 61 29 338 315 316 315 322 341 352 66 126 135 143 149 196 201 259 240 235
188 152 69 12 124 229 298 286 247 237 202 174 183 176 162 155 154 166 172 136 111 125 122 125 135 138 145 125 119 127 124 232 327 341 333 327 322 322 335 350 221 187 180 201 240 245 255 275 252
146 90 56 110 102 153 218 265 219 215 200 175 175 167 173 181 161 160 73 142 119 109 117 127 134 137 126 115 127 162 246 320 345 327 313 308 307 305 300 294 295 232 220 197 128 8 344 315 286
209 174 130 121 220 170 159 269 172 261 195 171 143 165 178 170 66 36 31 15 341 134 131 139 159 142 152 151 147 201 287 315 322 322 318 316 311 311 303 279 280 253 223 210 182 211 267 297 294